Location: Newark
(37.3396°N, 6.0260°W)
Time: 23:09:53
(UTC+00:00)

N. Korean satellite - Visible Passes

Search period start: 20 March 2019 00:00
Search period end: 30 March 2019 00:00
Orbit: 455 x 510 km, 97.2° (Epoch: 19 March)

Date Brightness Start Highest point End Pass type
(mag) Time Alt. Az. Time Alt. Az. Time Alt. Az.
20 Mar 10.1 05:34:21 10° ENE 05:35:59 13° E 05:37:39 10° ESE visible
23 Mar 9.5 05:52:12 10° NE 05:55:04 23° E 05:57:57 10° SSE visible
24 Mar 10.3 05:29:06 10° ENE 05:30:06 11° E 05:31:07 10° ESE visible
27 Mar 9.7 05:46:29 10° NE 05:49:10 19° E 05:51:51 10° SE visible
